sat.trackr.live / text

‹ back to catalog

STARLINK-33634

NORAD 63377 · 2025-063Q

PAYLOAD ACTIVE UNKNOWN

§ Identity

Operator
Country
US
Launch date
2025-03-26
Launch site
AFWTR
Launch vehicle
Mass (kg)
RCS (m²)

Purposes: comms

External: N2YO · Heavens-Above · Gunter

§ Orbital elements

Epoch: 2026-09-20T05:13:36.392448Z

Period
93.85 min
Inclination
53.1578°
Eccentricity
0.0001458
Mean motion
15.34399516 rev/d
Perigee alt
461.7 km
Apogee alt
463.7 km
Semi-major
6,840.8 km
B*
5.4174e-4
RAAN
226.6969°
Arg perigee
73.7336°
Mean anomaly
286.3827°
Rev number
8,457

§ Raw data

STARLINK-336341 63377U 25063Q   26263.21778232  .00017971  00000+0  54174-3 0  99912 63377  53.1578 226.6969 0001458  73.7336 286.3827 15.34399516 84570

JSON: /api/v1/satellites/63377 · /tle

For live sub-satellite position, see the globe view (requires WebGL).

§ Visibility from observer

Set your observer location to see the next 7 days of passes ≥ 10°. The values pass through the URL so the page stays shareable.

No JS? Fill the form by hand. The geolocation button needs JavaScript.